Flag for Poland Weather past 2 weeks in Rzeszów, Poland

Now
64 °F

Passing clouds.


Feels Like: 64 °F
Forecast: 52 / 61 °F
Wind: 9 mph from Southeast

Location: Rzeszow-Jasionka

Current Time: Sep 5, 2015 at 6:38:45 PM

Latest Report: Sep 5, 2015 at 6:00 PM


Visibility: N/A

Pressure: 29.86 "Hg

Humidity: 64%

Dew point: 52 °F

Location of RzeszówLocation

Historic Weather in Rzeszów — Graph

°F

Rzeszów temperature yesterday

Maximum temperature yesterday: 68 °F (at 10:30 AM)
Minimum temperature yesterday: 52 °F (at 11:30 PM)
Average temperature yesterday: 60 °F

Past Weeks' High & Low Weather Summary

 TemperatureHumidityPressure
High97 °F (Sep 1, 3:30 PM)100% (Aug 26, 1:30 AM)30.27 "Hg (Aug 26, 1:30 AM)
Low46 °F (Sep 5, 4:00 AM)13% (Sep 1, 3:30 PM)29.77 "Hg (Sep 1, 2:30 PM)
Average69 °F65%30.05 "Hg
* Reported Aug 21 5:00 PM — Sep 5 5:00 PM, Rzeszów, Weather by CustomWeather, © 2015

Note: Actual official high and low records may vary slightly from our data, if they occured in-between our weather recording intervals... More about our weather records

Advertising

Rzeszów weather history for previous 24 hours

 ConditionsComfort  
Time TempWeatherWind HumidityBarometerVisibility
5:00 PM
Sat, Sep 5
64 °FPassing clouds.7 mph68%29.86 "HgN/A
4:30 PM64 °FPassing clouds.6 mph68%29.86 "HgN/A
4:00 PM64 °FSunny.8 mph78%29.86 "Hg10 mi
3:30 PM64 °FLight rain. Clear.8 mph73%29.89 "HgN/A
3:00 PM64 °FSunny.8 mph73%29.89 "Hg10 mi
2:30 PM64 °FLight rain. Clear.6 mph73%29.89 "HgN/A
2:00 PM64 °FLight rain. Clear.7 mph78%29.89 "HgN/A
1:30 PM64 °FSunny.1 mph83%29.92 "Hg10 mi
12:30 PM61 °FLight rain. Clear.3 mph94%29.89 "Hg4 mi
12:00 PM59 °FLight rain. Clear.3 mph94%29.92 "Hg4 mi
11:30 AM59 °FLight rain. Clear.1 mph94%29.92 "Hg4 mi
11:00 AM59 °FLight rain. Clear.5 mph88%29.92 "Hg5 mi
10:30 AM59 °FLight rain. Clear.2 mph88%29.92 "HgN/A
10:00 AM57 °FLight rain. Clear.2 mph94%29.92 "HgN/A
9:30 AM57 °FSunny.1 mph88%29.92 "Hg10 mi
9:00 AM55 °FSunny.1 mph94%29.92 "Hg10 mi
8:30 AM54 °FClear.2 mph94%29.92 "Hg5 mi
8:00 AM52 °FClear.1 mph100%29.95 "Hg5 mi
7:30 AM50 °FClear.No wind100%29.95 "Hg5 mi
7:00 AM50 °FClear.2 mph94%29.95 "Hg5 mi
6:30 AM48 °FClear.3 mph100%29.95 "Hg5 mi
6:00 AM48 °FFog.No wind100%29.95 "Hg4 mi
5:30 AM46 °FFog.1 mph100%29.95 "Hg2 mi
5:00 AM48 °FCool.2 mph94%29.95 "Hg3 mi
4:30 AM48 °FCool.2 mph94%29.95 "Hg3 mi
4:00 AM46 °FClear.No wind100%29.98 "Hg4 mi
3:30 AM48 °FClear.No wind100%29.98 "Hg4 mi
3:00 AM48 °FClear.No wind100%29.98 "Hg5 mi
2:30 AM50 °FClear.No wind100%29.98 "Hg5 mi
2:00 AM50 °FClear.1 mph100%29.98 "Hg10 mi
1:30 AM50 °FClear.No wind100%29.98 "Hg10 mi
1:00 AM52 °FClear.No wind94%29.98 "Hg10 mi
12:30 AM52 °FClear.1 mph94%29.98 "Hg10 mi
12:00 AM54 °FPassing clouds.No wind94%29.98 "HgN/A
11:30 PM
Fri, Sep 4
52 °FPassing clouds.1 mph94%29.98 "HgN/A
11:00 PM54 °FPassing clouds.2 mph94%29.98 "HgN/A
10:30 PM54 °FClear.1 mph94%29.98 "Hg10 mi
10:00 PM54 °FClear.No wind94%29.98 "Hg10 mi
9:30 PM54 °FClear.No wind94%29.98 "Hg10 mi
9:00 PM54 °FClear.1 mph94%29.98 "Hg10 mi
8:30 PM59 °FClear.2 mph82%29.98 "Hg10 mi
8:00 PM59 °FSunny.2 mph82%29.98 "Hg10 mi
7:30 PM59 °FSunny.2 mph77%29.98 "Hg10 mi
7:00 PM63 °FPassing clouds.3 mph73%29.98 "HgN/A
6:30 PM64 °FPassing clouds.7 mph68%29.95 "HgN/A
6:00 PM64 °FPassing clouds.8 mph68%29.95 "HgN/A
Weather by CustomWeather, © 2015

See weather overviewHow to use our weather pages